Regional Weather Roundup
Issued by NWS

Home | Current Version | Previous Version | Graphics & Text | Print | Product List | Glossary On
Versions: 1 2 3 4 5 6 7 8 9 10 11 12 13 14 15 16 17 18 19 20 21 22 23 24 25 26 27 28 29 30 31 32 33 34 35 36 37 38 39 40 41 42 43 44 45 46 47 48 49 50
000
ASUS43 KIND 221500
RWRIN

WEATHER ROUNDUP FOR INDIANA
NATIONAL WEATHER SERVICE INDIANAPOLIS IN
1100 AM EDT SAT JUL 22 2017

NOTE: "FAIR" INDICATES FEW OR NO CLOUDS BELOW 12,000 FEET WITH NO
SIGNIFICANT WEATHER AND/OR OBSTRUCTIONS TO VISIBILITY.

* - STATION DOES NOT REPORT WEATHER SUCH AS PRECIPITATION OR FOG.

+ - STATION NOT QUALITY CONTROLLED BY THE NATIONAL WEATHER SERVICE.
    USE DATA WITH CAUTION...ESPECIALLY DEWPOINT AND RELATIVE
    HUMIDITY OBSERVATIONS.

INZ001>003-010>013-019-020-221600-
NORTHWEST INDIANA

CITY           SKY/WX    TMP DP  RH WIND       PRES   REMARKS
GARY /AIRPORT/ PTSUNNY   75  70  83 CALM      29.82R
MICHIGAN CITY+ CLOUDY    73  73 100 CALM      29.82R
MONTICELLO +   CLOUDY    72  71  95 S14G24    29.74F
RENSSELAER +   CLOUDY    72  68  88 W7        29.81R

$$

LMZ046-743>745-221600-
SOUTHERN LAKE MICHIGAN

STATION/POSITION TIME  TEMP    WIND        PRES    WAVE
                       AIR SEA DIR/SP/G            HT
                 (UTC) (F)     (DEG/KT/KT) (MB)    (FT)
BURNS HARBOR     1440   75     240/  3/  5 1010.5R
MICHIGAN CITY    1430   73     120/  5/  6   N/A
5NW MICH CITY    1450   74 74  330/  4/  6   N/A     1

$$

INZ004-005-014>016-021>024-221600-
NORTH CENTRAL INDIANA

CITY           SKY/WX    TMP DP  RH WIND       PRES   REMARKS
ELKHART        SUNNY     75  72  88 CALM      29.82F
GOSHEN         CLOUDY    77  69  76 VRB3      29.83S
SOUTH BEND     PTSUNNY   75  71  87 CALM      29.82R
WARSAW +       CLOUDY    75  72  88 N9        29.82R

$$

INZ006>009-017-018-025>027-221600-
NORTHEAST INDIANA

CITY           SKY/WX    TMP DP  RH WIND       PRES   REMARKS
FORT WAYNE     PTSUNNY   75  71  87 SW20      29.80F
KENDALLVILLE + LGT RAIN  73  73 100 E3        29.84F

$$

INZ028-029-035-036-043>045-051>053-221600-
WEST CENTRAL INDIANA

CITY           SKY/WX    TMP DP  RH WIND       PRES   REMARKS
GREENCASTLE +  CLOUDY    79  73  83 NW7       29.94R
LAFAYETTE      LGT RAIN  72  71  97 S13       29.79F
TERRE HAUTE    PTSUNNY   82  72  71 NW14G24   29.95R

$$

INZ030>032-037>040-046>048-054>057-064-065-221600-
CENTRAL INDIANA

CITY           SKY/WX    TMP DP  RH WIND       PRES   REMARKS
ANDERSON       CLOUDY    79  72  78 MISG        N/A
COLUMBUS       CLOUDY    82  75  78 SW8       29.92S
FRANKFORT +    CLOUDY    77  74  88 SW6       29.87F
GREENWOOD *+   CLOUDY   N/A N/A N/A SW8       29.92S
INDIANAPOLIS   CLOUDY    81  75  82 W12       29.91R
-EAGLE CREEK   CLOUDY    82  74  76 W9        29.91R
KOKOMO +       CLOUDY    75  72  90 S15       29.82F
MT COMFORT *+  CLOUDY    77  72  83 SW7       29.92R
SHELBYVILLE    CLOUDY    83  75  77 SW9       29.91S

$$

INZ033-034-041-042-049-050-058-059-221600-
EAST CENTRAL INDIANA

CITY           SKY/WX    TMP DP  RH WIND       PRES   REMARKS
MUNCIE         CLOUDY    79  73  82 W7        29.90R
RICHMOND +     CLOUDY    77  72  83 SW8       29.93S

$$

INZ060-061-067>069-081>083-085>088-221600-
SOUTHWEST INDIANA

CITY           SKY/WX    TMP DP  RH WIND       PRES   REMARKS
EVANSVILLE     SUNNY     91  74  57 W12G22    29.95R HX 100
HUNTINGBURG *+ SUNNY     89  77  67 W13       29.96R HX 101

$$

INZ062-063-066-070>080-084-089>092-221600-
SOUTH CENTRAL AND SOUTHEAST INDIANA

CITY           SKY/WX    TMP DP  RH WIND       PRES   REMARKS
BLOOMINGTON    PTSUNNY   85  75  72 W8        29.94R
MADISON *+     CLOUDY    88  73  62 SW12      29.96S HX  96
SEYMOUR +      CLOUDY    86  75  70 W10       29.93R HX  95

$$





USA.gov is the U.S. government's official web portal to all federal, state and local government web resources and services.